User: anonymous   Login
Location: Dover
(39.1580°N, 75.5250°W)
Time: 23:30:35
(UTC-05:00)
Language:

SeaSat 1 - Orbit

View from above orbital plane
View from above orbital plane
View from above satellite
View from above satellite

Ground track
Ground track

The orbit data is extracted from the following two-line orbital elements,

1 10967U 78064A   17052.54314449 -.00000006  00000-0  38629-4 0  9996
2 10967 108.0133  57.7775 0001472 288.3935  71.7050 14.43622773 29911
Epoch (UTC): 21 February 2017 13:02:07
Eccentricity: 0.0001472
inclination: 108.0133°
perigee height: 745 km
apogee height: 747 km
right ascension of ascending node: 57.7775°
argument of perigee: 288.3935°
revolutions per day: 14.43622773
mean anomaly at epoch: 71.7050°
orbit number at epoch: 2991

The dashed part of the orbit path shows where the satellite is in the earth's shadow,  

DLR